| time (UTC) | temp F | wind direction | speed MPH | gust MPH | rain 1hr in | rain 24hr in | rain mn in | humidity % | barometer mb |
| 20260503211319 | 83 | 78 | 0.0 | 0.0 | 0.00 | 0.00 | 0.00 | 50 | 1014.1 |
| 20260503210819 | 82 | 211 | 0.0 | 0.0 | 0.00 | 0.00 | 0.00 | 53 | 1014.3 |
| 20260503210317 | 80 | 127 | 0.0 | 0.0 | 0.00 | 0.00 | 0.00 | 55 | 1014.2 |
| 20260503205812 | 80 | 176 | 0.0 | 0.0 | 0.00 | 0.00 | 0.00 | 54 | 1014.3 |
| 20260503205309 | 83 | 50 | 0.0 | 0.0 | 0.00 | 0.00 | 0.00 | 52 | 1014.4 |
| 20260503204805 | 82 | 217 | 0.0 | 0.0 | 0.00 | 0.00 | 0.00 | 53 | 1014.2 |
| 20260503204303 | 82 | 196 | 2.0 | 3.0 | 0.00 | 0.00 | 0.00 | 52 | 1014.3 |
| 20260503203800 | 80 | 121 | 0.0 | 0.0 | 0.00 | 0.00 | 0.00 | 55 | 1014.3 |
| 20260503203257 | 83 | 122 | 0.0 | 0.0 | 0.00 | 0.00 | 0.00 | 52 | 1014.5 |
| 20260503202754 | 83 | 171 | 0.0 | 0.0 | 0.00 | 0.00 | 0.00 | 53 | 1014.5 |
| 20260503202252 | 82 | 131 | 0.0 | 0.0 | 0.00 | 0.00 | 0.00 | 55 | 1014.6 |
| 20260503201750 | 82 | 165 | 0.0 | 0.0 | 0.00 | 0.00 | 0.00 | 54 | 1014.6 |
| 20260503201247 | 83 | 155 | 0.0 | 0.0 | 0.00 | 0.00 | 0.00 | 54 | 1014.8 |
| 20260503200744 | 82 | 212 | 0.0 | 0.0 | 0.00 | 0.00 | 0.00 | 53 | 1014.7 |
| 20260503200240 | 82 | 283 | 0.0 | 0.0 | 0.00 | 0.00 | 0.00 | 52 | 1014.8 |
| 20260503195737 | 83 | 159 | 0.0 | 0.0 | 0.00 | 0.00 | 0.00 | 52 | 1014.8 |
| 20260503195234 | 82 | 75 | 1.0 | 2.0 | 0.00 | 0.00 | 0.00 | 54 | 1015.0 |
| 20260503194732 | 80 | 173 | 0.0 | 0.0 | 0.00 | 0.00 | 0.00 | 55 | 1014.9 |
| 20260503194227 | 79 | 104 | 0.0 | 0.0 | 0.00 | 0.00 | 0.00 | 57 | 1015.0 |
| 20260503193723 | 81 | 102 | 1.0 | 5.0 | 0.00 | 0.00 | 0.00 | 57 | 1015.1 |
| 20260503193219 | 83 | 176 | 0.0 | 0.0 | 0.00 | 0.00 | 0.00 | 55 | 1015.0 |
| 20260503192715 | 81 | 167 | 0.0 | 0.0 | 0.00 | 0.00 | 0.00 | 58 | 1015.1 |
| 20260503192210 | 81 | 146 | 0.0 | 0.0 | 0.00 | 0.00 | 0.00 | 58 | 1015.5 |
| 20260503191708 | 80 | 146 | 0.0 | 0.0 | 0.00 | 0.00 | 0.00 | 59 | 1015.7 |
| 20260503191205 | 79 | 29 | 0.0 | 2.0 | 0.00 | 0.00 | 0.00 | 59 | 1015.8 |
| 20260503190701 | 80 | 159 | 1.0 | 5.0 | 0.00 | 0.00 | 0.00 | 59 | 1016.0 |
| 20260503190158 | 80 | 171 | 0.0 | 0.0 | 0.00 | 0.00 | 0.00 | 59 | 1015.9 |
| 20260503185655 | 80 | 211 | 0.0 | 0.0 | 0.00 | 0.00 | 0.00 | 58 | 1016.0 |
| 20260503185150 | 79 | 62 | 0.0 | 0.0 | 0.00 | 0.00 | 0.00 | 62 | 1016.2 |
| 20260503184645 | 80 | 33 | 0.0 | 0.0 | 0.00 | 0.00 | 0.00 | 59 | 1016.2 |
| 20260503184142 | 80 | 176 | 0.0 | 0.0 | 0.00 | 0.00 | 0.00 | 59 | 1016.0 |
| 20260503183638 | 79 | 160 | 0.0 | 0.0 | 0.00 | 0.00 | 0.00 | 60 | 1016.0 |
| 20260503183136 | 79 | 153 | 1.0 | 2.0 | 0.00 | 0.00 | 0.00 | 61 | 1016.3 |
| 20260503182634 | 80 | 152 | 0.0 | 0.0 | 0.00 | 0.00 | 0.00 | 61 | 1016.3 |
| 20260503182132 | 78 | 146 | 0.0 | 1.0 | 0.00 | 0.00 | 0.00 | 62 | 1016.4 |
| 20260503181629 | 79 | 78 | 0.0 | 0.0 | 0.00 | 0.00 | 0.00 | 64 | 1016.3 |
| 20260503181126 | 79 | 67 | 0.0 | 0.0 | 0.00 | 0.00 | 0.00 | 62 | 1016.5 |
| 20260503180622 | 80 | 125 | 0.0 | 1.0 | 0.00 | 0.00 | 0.00 | 60 | 1016.5 |
| 20260503180120 | 78 | 131 | 0.0 | 0.0 | 0.00 | 0.00 | 0.00 | 64 | 1016.5 |
| 20260503175617 | 78 | 158 | 0.0 | 2.0 | 0.00 | 0.00 | 0.00 | 63 | 1016.4 |
| 20260503175114 | 80 | 157 | 1.0 | 1.0 | 0.00 | 0.00 | 0.00 | 60 | 1016.5 |
| 20260503174611 | 79 | 103 | 0.0 | 0.0 | 0.00 | 0.00 | 0.00 | 61 | 1016.7 |
| 20260503174108 | 78 | 157 | 0.0 | 0.0 | 0.00 | 0.00 | 0.00 | 66 | 1016.6 |
| 20260503173603 | 80 | 156 | 0.0 | 0.0 | 0.00 | 0.00 | 0.00 | 62 | 1016.7 |
| 20260503173059 | 80 | 31 | 0.0 | 0.0 | 0.00 | 0.00 | 0.00 | 64 | 1016.8 |
| 20260503172556 | 80 | 164 | 1.0 | 2.0 | 0.00 | 0.00 | 0.00 | 60 | 1016.7 |
| 20260503172054 | 80 | 193 | 2.0 | 9.0 | 0.00 | 0.00 | 0.00 | 60 | 1017.1 |
| 20260503171550 | 79 | 137 | 1.0 | 2.0 | 0.00 | 0.00 | 0.00 | 62 | 1016.9 |
| 20260503171048 | 78 | 175 | 1.0 | 1.0 | 0.00 | 0.00 | 0.00 | 63 | 1016.7 |
| 20260503170544 | 78 | 111 | 0.0 | 2.0 | 0.00 | 0.00 | 0.00 | 65 | 1017.0 |
| 20260503150937 | 72 | 179 | 0.0 | 0.0 | 0.00 | 0.00 | 0.00 | 73 | 1017.7 |
| 20260503150433 | 72 | 145 | 4.0 | 6.0 | 0.00 | 0.00 | 0.00 | 72 | 1017.5 |
| 20260503131326 | 65 | 151 | 2.0 | 3.0 | 0.00 | 0.00 | 0.00 | 89 | 1016.5 |
| 20260503130824 | 65 | 256 | 0.0 | 0.0 | 0.00 | 0.00 | 0.00 | 90 | 1016.3 |
| 20260503130321 | 65 | 141 | 0.0 | 0.0 | 0.00 | 0.00 | 0.00 | 90 | 1016.4 |
| 20260503110714 | 62 | 169 | 0.0 | 0.0 | 0.00 | 0.00 | 0.00 | 94 | 1015.4 |
| 20260503110212 | 63 | 135 | 0.0 | 0.0 | 0.00 | 0.00 | 0.00 | 94 | 1015.2 |
| 20260503100138 | 63 | 159 | 0.0 | 0.0 | 0.00 | 0.00 | 0.00 | 93 | 1014.9 |
| 20260503081533 | 63 | 170 | 0.0 | 0.0 | 0.00 | 0.00 | 0.00 | 94 | 1014.2 |
| 20260503081030 | 63 | 140 | 0.0 | 0.0 | 0.00 | 0.00 | 0.00 | 94 | 1014.2 |
| 20260503080526 | 63 | 176 | 0.0 | 0.0 | 0.00 | 0.00 | 0.00 | 94 | 1014.0 |
| 20260503072500 | 64 | 194 | 0.0 | 0.0 | 0.00 | 0.00 | 0.00 | 94 | 1013.8 |
| 20260503071957 | 64 | 172 | 0.0 | 0.0 | 0.00 | 0.00 | 0.00 | 94 | 1013.9 |
| 20260503071454 | 64 | 172 | 0.0 | 0.0 | 0.00 | 0.00 | 0.00 | 94 | 1013.9 |
| 20260503070950 | 64 | 204 | 0.0 | 0.0 | 0.00 | 0.00 | 0.00 | 94 | 1014.0 |
| 20260503070447 | 64 | 143 | 0.0 | 0.0 | 0.00 | 0.00 | 0.00 | 94 | 1014.1 |
| 20260503054906 | 66 | 172 | 0.0 | 0.0 | 0.00 | 0.00 | 0.00 | 93 | 1014.1 |
| 20260503054402 | 66 | 144 | 0.0 | 0.0 | 0.00 | 0.00 | 0.00 | 93 | 1014.2 |
| 20260503053900 | 66 | 159 | 0.0 | 0.0 | 0.00 | 0.00 | 0.00 | 93 | 1014.4 |
| 20260503053358 | 66 | 177 | 0.0 | 0.0 | 0.00 | 0.00 | 0.00 | 93 | 1014.2 |
| 20260503052854 | 66 | 150 | 0.0 | 0.0 | 0.00 | 0.00 | 0.00 | 93 | 1014.2 |
| 20260503052351 | 66 | 184 | 0.0 | 0.0 | 0.00 | 0.00 | 0.00 | 93 | 1014.0 |
| 20260503051847 | 66 | 172 | 0.0 | 0.0 | 0.00 | 0.00 | 0.00 | 93 | 1014.1 |
| 20260503051344 | 66 | 296 | 0.0 | 0.0 | 0.00 | 0.00 | 0.00 | 93 | 1013.8 |
| 20260503050841 | 66 | 251 | 0.0 | 0.0 | 0.00 | 0.00 | 0.00 | 93 | 1014.0 |
| 20260503050337 | 66 | 166 | 0.0 | 0.0 | 0.00 | 0.00 | 0.00 | 93 | 1014.0 |
| 20260503045834 | 66 | 211 | 0.0 | 0.0 | 0.00 | 0.00 | 0.00 | 94 | 1013.9 |
| 20260503045332 | 66 | 154 | 0.0 | 0.0 | 0.00 | 0.00 | 0.00 | 94 | 1013.8 |
| 20260503044828 | 66 | 88 | 0.0 | 1.0 | 0.00 | 0.00 | 0.00 | 95 | 1013.9 |
| 20260503044325 | 66 | 195 | 0.0 | 0.0 | 0.00 | 0.00 | 0.00 | 95 | 1013.9 |
| 20260503043822 | 67 | 86 | 0.0 | 0.0 | 0.00 | 0.00 | 0.00 | 95 | 1013.8 |
| 20260503043319 | 67 | 262 | 0.0 | 1.0 | 0.00 | 0.00 | 0.00 | 96 | 1014.0 |
| 20260503042815 | 68 | 169 | 0.0 | 0.0 | 0.00 | 0.00 | 0.00 | 96 | 1014.0 |
| 20260503042312 | 68 | 194 | 0.0 | 0.0 | 0.00 | 0.00 | 0.00 | 96 | 1013.8 |
| 20260503041808 | 68 | 154 | 0.0 | 0.0 | 0.00 | 0.00 | 0.00 | 96 | 1013.6 |
| 20260503041306 | 68 | 58 | 1.0 | 5.0 | 0.00 | 0.00 | 0.00 | 97 | 1013.4 |
| 20260503040804 | 69 | 154 | 0.0 | 0.0 | 0.00 | 0.00 | 0.00 | 97 | 1013.0 |
| 20260503040301 | 69 | 247 | 0.0 | 0.0 | 0.00 | 0.00 | 0.00 | 97 | 1012.9 |
| 20260503035757 | 69 | 232 | 0.0 | 0.0 | 0.00 | 0.36 | 0.36 | 97 | 1013.0 |
| 20260503035255 | 70 | 144 | 0.0 | 0.0 | 0.00 | 0.36 | 0.36 | 97 | 1012.9 |
| 20260503034752 | 70 | 205 | 0.0 | 0.0 | 0.00 | 0.36 | 0.36 | 97 | 1012.8 |
| 20260503034249 | 70 | 210 | 0.0 | 0.0 | 0.00 | 0.36 | 0.36 | 98 | 1012.6 |
| 20260503033746 | 70 | 225 | 0.0 | 0.0 | 0.00 | 0.36 | 0.36 | 98 | 1012.6 |
| 20260503033244 | 70 | 296 | 0.0 | 0.0 | 0.00 | 0.36 | 0.36 | 98 | 1012.6 |
| 20260503032742 | 70 | 222 | 0.0 | 0.0 | 0.00 | 0.36 | 0.36 | 98 | 1012.1 |
| 20260503032240 | 70 | 216 | 0.0 | 0.0 | 0.00 | 0.36 | 0.36 | 98 | 1012.3 |
| 20260503031737 | 70 | 171 | 0.0 | 0.0 | 0.00 | 0.36 | 0.36 | 98 | 1012.3 |
| 20260503031235 | 71 | 293 | 0.0 | 0.0 | 0.00 | 0.36 | 0.36 | 98 | 1012.1 |
| 20260503030731 | 71 | 213 | 0.0 | 0.0 | 0.00 | 0.36 | 0.36 | 98 | 1011.8 |
| 20260503030228 | 71 | 241 | 0.0 | 0.0 | 0.00 | 0.36 | 0.36 | 98 | 1012.1 |
| 20260503025725 | 71 | 220 | 0.0 | 0.0 | 0.00 | 0.36 | 0.36 | 98 | 1012.0 |
| 20260503025222 | 71 | 282 | 0.0 | 0.0 | 0.00 | 0.36 | 0.36 | 98 | 1011.8 |
| 20260503024719 | 71 | 174 | 0.0 | 0.0 | 0.00 | 0.36 | 0.36 | 98 | 1011.7 |
| 20260503024216 | 71 | 146 | 0.0 | 0.0 | 0.00 | 0.36 | 0.36 | 98 | 1011.5 |
| 20260503023713 | 71 | 252 | 0.0 | 0.0 | 0.00 | 0.36 | 0.36 | 98 | 1011.7 |
| 20260503023209 | 71 | 274 | 0.0 | 0.0 | 0.00 | 0.36 | 0.36 | 98 | 1011.7 |
| 20260503022706 | 71 | 269 | 0.0 | 0.0 | 0.00 | 0.36 | 0.36 | 98 | 1011.7 |
| 20260503022205 | 71 | 184 | 0.0 | 0.0 | 0.00 | 0.36 | 0.36 | 98 | 1011.8 |
| 20260503021703 | 71 | 215 | 0.0 | 0.0 | 0.00 | 0.36 | 0.36 | 98 | 1012.1 |
| 20260503021159 | 71 | 218 | 0.0 | 0.0 | 0.00 | 0.36 | 0.36 | 98 | 1011.7 |
| 20260503020656 | 71 | 181 | 0.0 | 0.0 | 0.00 | 0.36 | 0.36 | 98 | 1011.8 |
| 20260503020154 | 71 | 251 | 0.0 | 0.0 | 0.00 | 0.36 | 0.36 | 98 | 1011.8 |
| 20260503015650 | 71 | 186 | 0.0 | 0.0 | 0.00 | 0.36 | 0.36 | 98 | 1011.5 |
| 20260503015147 | 71 | 179 | 0.0 | 0.0 | 0.00 | 0.36 | 0.36 | 98 | 1011.3 |
| 20260503014643 | 71 | 197 | 0.0 | 0.0 | 0.00 | 0.36 | 0.36 | 98 | 1011.3 |
| 20260503014141 | 71 | 235 | 0.0 | 0.0 | 0.00 | 0.36 | 0.36 | 99 | 1011.1 |
| 20260503013638 | 71 | 203 | 0.0 | 0.0 | 0.00 | 0.36 | 0.36 | 99 | 1011.0 |
| 20260503013136 | 71 | 197 | 0.0 | 0.0 | 0.00 | 0.36 | 0.36 | 99 | 1010.9 |
| 20260503012633 | 71 | 256 | 0.0 | 0.0 | 0.00 | 0.36 | 0.36 | 99 | 1011.0 |
| 20260503012130 | 71 | 192 | 0.0 | 0.0 | 0.00 | 0.36 | 0.36 | 99 | 1010.8 |
| 20260503011626 | 71 | 240 | 0.0 | 0.0 | 0.00 | 0.36 | 0.36 | 99 | 1011.0 |
| 20260503011124 | 71 | 203 | 0.0 | 0.0 | 0.00 | 0.36 | 0.36 | 99 | 1011.0 |
| 20260503010620 | 71 | 238 | 0.0 | 0.0 | 0.00 | 0.36 | 0.36 | 99 | 1010.6 |
| 20260503010117 | 71 | 223 | 0.0 | 0.0 | 0.00 | 0.36 | 0.36 | 99 | 1010.6 |
| 20260503005614 | 71 | 249 | 0.0 | 0.0 | 0.00 | 0.36 | 0.36 | 99 | 1010.3 |
| 20260503005111 | 71 | 207 | 0.0 | 0.0 | 0.00 | 0.36 | 0.36 | 99 | 1010.0 |
| 20260503004607 | 71 | 286 | 0.0 | 0.0 | 0.00 | 0.36 | 0.36 | 99 | 1010.2 |
| 20260503004106 | 71 | 319 | 0.0 | 0.0 | 0.00 | 0.36 | 0.36 | 99 | 1010.1 |
| 20260503003603 | 71 | 197 | 0.0 | 0.0 | 0.00 | 0.36 | 0.36 | 99 | 1010.0 |
| 20260503003059 | 71 | 221 | 0.0 | 0.0 | 0.00 | 0.36 | 0.36 | 99 | 1010.0 |
| 20260503002556 | 71 | 285 | 0.0 | 0.0 | 0.00 | 0.36 | 0.36 | 99 | 1009.9 |
| 20260503002053 | 71 | 305 | 0.0 | 0.0 | 0.00 | 0.36 | 0.36 | 99 | 1009.9 |
| 20260503001549 | 71 | 168 | 0.0 | 0.0 | 0.00 | 0.36 | 0.36 | 99 | 1009.7 |
| 20260503001047 | 71 | 177 | 0.0 | 0.0 | 0.00 | 0.36 | 0.36 | 99 | 1009.6 |
| 20260503000544 | 71 | 179 | 0.0 | 0.0 | 0.00 | 0.36 | 0.36 | 99 | 1009.7 |
| 20260503000041 | 71 | 177 | 0.0 | 0.0 | 0.00 | 0.36 | 0.36 | 99 | 1009.6 |
| 20260502235537 | 71 | 214 | 0.0 | 0.0 | 0.00 | 0.36 | 0.36 | 99 | 1010.2 |
| 20260502235036 | 71 | 181 | 0.0 | 0.0 | 0.00 | 0.36 | 0.36 | 99 | 1010.2 |
| 20260502234531 | 71 | 216 | 0.0 | 0.0 | 0.00 | 0.36 | 0.36 | 99 | 1009.9 |
| 20260502234029 | 71 | 201 | 0.0 | 0.0 | 0.00 | 0.36 | 0.36 | 99 | 1009.8 |
| 20260502233524 | 71 | 181 | 0.0 | 0.0 | 0.00 | 0.36 | 0.36 | 99 | 1009.8 |
| 20260502233021 | 71 | 188 | 0.0 | 0.0 | 0.00 | 0.36 | 0.36 | 99 | 1010.0 |
| 20260502232517 | 71 | 176 | 0.0 | 0.0 | 0.00 | 0.36 | 0.36 | 99 | 1009.7 |
| 20260502232014 | 71 | 193 | 0.0 | 0.0 | 0.00 | 0.36 | 0.36 | 99 | 1009.7 |
| 20260502231511 | 71 | 170 | 0.0 | 0.0 | 0.00 | 0.36 | 0.36 | 99 | 1009.8 |
| 20260502231009 | 70 | 175 | 0.0 | 0.0 | 0.00 | 0.36 | 0.36 | 99 | 1009.9 |
| 20260502230508 | 70 | 196 | 0.0 | 0.0 | 0.00 | 0.36 | 0.36 | 99 | 1010.1 |
| 20260502230006 | 70 | 205 | 0.0 | 0.0 | 0.00 | 0.36 | 0.36 | 99 | 1010.0 |
| 20260502225500 | 70 | 195 | 0.0 | 0.0 | 0.00 | 0.36 | 0.36 | 99 | 1009.9 |
| 20260502224958 | 70 | 182 | 0.0 | 0.0 | 0.00 | 0.36 | 0.36 | 99 | 1009.9 |
| 20260502224454 | 70 | 165 | 0.0 | 0.0 | 0.00 | 0.36 | 0.36 | 99 | 1009.9 |
| 20260502223951 | 70 | 169 | 0.0 | 0.0 | 0.00 | 0.36 | 0.36 | 99 | 1010.0 |
| 20260502223449 | 70 | 185 | 0.0 | 0.0 | 0.00 | 0.36 | 0.36 | 99 | 1009.8 |
| 20260502222947 | 70 | 159 | 0.0 | 0.0 | 0.00 | 0.36 | 0.36 | 99 | 1009.7 |
| 20260502222444 | 70 | 119 | 0.0 | 0.0 | 0.00 | 0.36 | 0.36 | 99 | 1009.4 |
| 20260502221939 | 70 | 169 | 0.0 | 0.0 | 0.00 | 0.36 | 0.36 | 99 | 1009.7 |
| 20260502221436 | 70 | 217 | 0.0 | 0.0 | 0.00 | 0.36 | 0.36 | 99 | 1010.0 |
| 20260502220933 | 70 | 161 | 0.0 | 0.0 | 0.05 | 0.36 | 0.36 | 99 | 1009.7 |
| 20260502220429 | 70 | 229 | 0.0 | 0.0 | 0.05 | 0.36 | 0.36 | 99 | 1009.9 |
| 20260502215926 | 70 | 169 | 0.0 | 0.0 | 0.00 | 0.35 | 0.35 | 99 | 1009.7 |
| 20260502215423 | 69 | 190 | 0.0 | 0.0 | 0.00 | 0.35 | 0.35 | 99 | 1009.3 |
| 20260502214920 | 70 | 232 | 0.0 | 0.0 | 0.00 | 0.35 | 0.35 | 99 | 1009.3 |
| 20260502214416 | 69 | 191 | 0.0 | 0.0 | 0.00 | 0.35 | 0.35 | 99 | 1009.5 |
| 20260502213914 | 69 | 306 | 3.0 | 5.0 | 0.00 | 0.35 | 0.35 | 99 | 1010.0 |
| 20260502213410 | 69 | 285 | 2.0 | 3.0 | 0.00 | 0.35 | 0.35 | 99 | 1009.4 |
| 20260502212909 | 69 | 210 | 0.0 | 0.0 | 0.00 | 0.35 | 0.35 | 99 | 1009.0 |
| 20260502212408 | 69 | 169 | 0.0 | 0.0 | 0.00 | 0.35 | 0.35 | 99 | 1008.7 |
| 20260502211905 | 69 | 175 | 0.0 | 0.0 | 0.00 | 0.35 | 0.35 | 98 | 1009.0 |